Regional Weather Roundup
Issued by NWS New Orleans/Baton Rouge, LA

Home | Current Version | Previous Version | Text Only | Print | Product List | Glossary On
Versions: 1 2 3 4 5 6 7 8 9 10 11 12 13 14 15 16 17 18 19 20 21 22 23 24 25 26 27
000
ASUS44 KLIX 262113
RWRLIX
NEW ORLEANS REGIONAL WEATHER ROUNDUP
NATIONAL WEATHER SERVICE NEW ORLEANS LA
300 PM CST SUN FEB 26 2017

NOTE: "FAIR" INDICATES FEW OR NO CLOUDS BELOW 12,000 FEET WITH NO
      SIGNIFICANT WEATHER AND/OR OBSTRUCTIONS TO VISIBILITY.
      SKY/WX - SKY CONDITION AND SIGNIFICANT WEATHER.
      TMP - AIR TEMPERATURE.     DP    - DEWPOINT TEMPERATURE.
      RH  - RELATIVE HUMIDITY.   PRES  - PRESSURE.
      HI  - HEAT INDEX.          WCI   - WIND CHILL INDEX.

*  THESE STATIONS ARE NOT NWS OR FAA STATIONS AND ARE NOT UNDER
   NWS QUALITY CONTROL.

LAZ038-040-048-061>063-065>067-069-262200-
SOUTHEAST LOUISIANA

CITY           SKY/WX    TMP DP  RH WIND       PRES   REMARKS
N.O. AUDUBON   NOT AVBL
N.O. INTL ARPT PTSUNNY   67  51  56 SE16G22   30.11F
N.O. LAKEFRONT SUNNY     67  52  58 E15       30.13F
N.O. DOWNTOWN*   N/A     68  51  54 VRB7      30.13F
RESERVE*         N/A     70  50  50 E13       30.11F
SLIDELL        SUNNY     66  47  50 SE12G23   30.13F
BATON ROUGE    SUNNY     70  48  45 SE13G20   30.08F
BOOTHVILLE     SUNNY     68  56  65 E13       30.13S
BELLE CHASSE   PTSUNNY   67  53  61 E16       30.11F
BOGALUSA*        N/A     71  15  11 SE12      30.14F
GALLIANO*      PTCLDY    69  53  55 E10G21    30.10F
NEW ROADS*       N/A     68  47  47 SE12G18   30.07F
GONZALES*        N/A     69  49  50 SE10      30.09F
HAMMOND*       SUNNY     68  43  40 S13       30.13S
HOUMA*         MOSUNNY   70  55  60 E16G23    30.10F
PORT FOURCHON* NOT AVBL

$$

MSZ070-080>082-262200-
SOUTHERN MISSISSIPPI

CITY           SKY/WX    TMP DP  RH WIND       PRES   REMARKS
MCCOMB         SUNNY     69  23  17 SE17      30.09F
GULFPORT       SUNNY     64  47  53 E16G23    30.14F
BILOXI         SUNNY     64  46  52 SE14      30.14F
PASCAGOULA     SUNNY     66  37  34 SE14G21   30.16S
STENNIS ARPT*  SUNNY     64  41  42 MISG      30.15F

$$

COASTAL OBSERVATIONS
LAKE AND NEARSHORE STATIONS

STATION/POSITION TIME  TEMP    WIND        PRES    WAVE
                       AIR SEA DIR/SP/G            HT/PER
                 (UTC) (F)     (DEG/KT/KT) (MB)    (FT/S)
PASCAGOULA       2042   64     110/ 13/ 17 1020.8
WAVELAND YACHT   2042   61 64  120/ 14/ 17 1020.5
GRAND ISLE       2042   69 67  110/ 10/ 15 1019.5
SOUTHWEST PASS   2042          120/ 14/ 19   N/A
NEW CANAL        2042   67 65   80/  6/ 12 1019.2
SHELL BEACH      2042   65 66  110/ 15/ 19 1020.3

OFFSHORE STATIONS

STATION/POSITION TIME  TEMP    WIND        PRES    WAVE
                       AIR SEA DIR/SP/G            HT/PER
                 (UTC) (F)     (DEG/KT/KT) (MB)    (FT/S)

$$





USA.gov is the U.S. government's official web portal to all federal, state and local government web resources and services.